Temp
46 46 47 46 47 46 48 45 41 33 33 35 36 38 38 39 42 39 39 48 49 49 49 48 49 49 49 49 49 49 49 49 50 51 51 52 52 52
46 46 46 45 45 45 46 44 43 40 33 36 36 36 40 43 43 39 40 45 48 48 48 47 47 48 48 48 48 48 47 48 49 50 50 50 50 51
46 47 47 45 44 44 43 43 42 40 35 35 36 37 36 37 38 38 39 37 38 47 48 47 47 47 47 48 47 47 46 47 47 48 49 49 49 49
47 46 45 48 43 43 42 42 41 39 36 33 34 34 35 36 36 36 41 42 37 46 48 48 47 47 47 47 46 46 45 46 46 47 47 48 48 49
49 48 47 45 44 42 41 40 39 42 37 36 33 34 34 34 34 35 36 35 42 45 45 46 47 47 47 46 45 45 45 45 46 46 46 47 47 48
47 47 45 45 44 41 42 39 39 37 36 35 34 33 32 34 32 31 32 32 32 39 40 43 44 44 45 45 44 44 45 45 45 46 46 46 46 46
45 46 44 44 46 45 44 39 38 36 36 35 32 31 30 30 31 31 31 31 30 30 31 32 32 31 34 37 40 44 44 45 45 45 45 45 45 45
45 44 43 45 47 49 47 46 43 39 35 34 31 32 30 30 30 31 31 30 28 30 29 30 31 31 32 32 43 44 43 43 44 43 44 44 44 44
47 44 45 46 46 44 47 47 46 47 44 36 34 31 31 32 31 30 30 28 27 29 29 28 29 29 31 35 42 42 42 42 42 42 43 43 43 43
46 46 45 42 42 41 39 37 36 37 38 39 35 33 33 33 33 32 31 29 29 30 29 23 27 28 29 30 39 40 41 41 41 41 42 42 42 42
45 44 44 42 44 44 38 35 34 36 42 42 41 41 41 40 36 34 28 25 24 28 28 27 28 29 30 28 30 39 39 39 40 40 41 41 40 40
43 44 45 43 44 43 38 35 32 33 35 33 34 37 36 37 39 33 30 23 23 23 29 26 27 27 24 30 31 31 31 37 38 38 39 39 39 34
42 41 43 45 44 42 40 35 34 33 35 31 30 29 31 31 31 31 30 28 22 25 33 27 20 23 22 25 29 30 30 31 31 32 36 37 38 36
41 42 43 44 43 41 38 40 39 36 31 29 29 28 29 29 29 30 30 29 31 29 31 30 19 21 22 24 24 30 30 30 28 29 31 34 35 35
42 43 43 42 42 40 41 40 38 33 31 29 29 29 30 29 30 29 30 31 31 31 33 31 26 25 28 26 25 25 27 26 28 28 29 28 28 29
42 41 41 40 40 39 39 35 32 32 31 31 29 29 30 29 27 28 26 27 24 27 31 31 30 30 26 24 24 23 24 19 27 27 28 28 29 29
39 37 35 34 32 30 30 30 32 32 30 29 28 28 28 28 27 27 25 22 20 21 22 27 31 30 27 26 18 22 23 24 26 26 26 25 27 28
35 33 30 30 28 28 29 29 29 30 28 29 28 28 26 25 24 23 22 19 16 19 20 22 21 20 21 25 30 22 21 23 25 26 26 22 23 27
33 31 30 29 28 29 29 29 27 27 28 27 27 26 25 22 24 21 19 18 17 18 22 27 20 22 11 15 23 33 23 24 24 22 24 22 21 25
32 30 30 29 29 28 27 26 26 27 27 26 25 24 21 20 17 16 19 21 23 25 24 25 25 22 16 15 18 24 31 24 22 21 21 24 26 32
31 30 30 29 28 28 27 27 26 26 26 24 23 22 18 18 15 22 25 28 27 24 22 23 24 31 12 11 11 18 24 31 29 23 22 20 17 21
29 29 28 28 28 27 27 26 26 26 24 23 21 20 18 18 15 20 23 24 24 25 22 26 17 12 5 8 12 14 19 23 27 30 30 27 19 16
28 28 27 28 28 27 27 26 25 24 23 21 19 17 16 19 26 26 26 25 24 20 18 14 12 9 10 10 19 15 14 18 19 20 21 28 30 30
MSLP
1026.33 1026.71 1027.04 1027.34 1027.68 1028.40 1029.17 1030.05 1031.22 1033.82 1034.97 1035.28 1035.48 1035.74 1035.90 1036.04 1036.10 1036.40 1036.48 1036.22 1036.12 1036.11 1036.15 1036.07 1036.01 1035.84 1035.65 1035.51 1035.34 1035.14 1034.99 1034.66 1034.34 1033.75 1033.26 1032.81 1032.23 1031.66
1026.09 1026.60 1027.03 1027.47 1027.85 1028.32 1028.98 1029.54 1030.09 1031.24 1033.81 1034.64 1035.20 1035.64 1035.81 1035.98 1036.18 1036.49 1036.54 1036.53 1036.48 1036.37 1036.35 1036.30 1036.14 1035.99 1035.82 1035.71 1035.64 1035.41 1035.12 1034.76 1034.39 1033.99 1033.46 1033.04 1032.49 1031.96
1025.92 1026.32 1026.86 1027.40 1027.87 1028.45 1029.06 1029.55 1030.15 1030.82 1032.97 1034.46 1034.97 1035.40 1035.96 1036.19 1036.43 1036.49 1036.50 1036.71 1036.75 1036.56 1036.39 1036.33 1036.16 1036.06 1035.88 1035.75 1035.70 1035.61 1035.23 1034.87 1034.59 1034.17 1033.69 1033.20 1032.59 1032.07
1025.74 1026.32 1026.90 1027.60 1028.29 1028.67 1029.15 1029.74 1030.15 1030.69 1031.98 1034.03 1035.02 1035.31 1035.71 1036.13 1036.41 1036.54 1036.43 1036.54 1036.70 1036.63 1036.41 1036.29 1036.15 1036.03 1035.87 1035.81 1035.76 1035.63 1035.29 1034.98 1034.72 1034.39 1033.85 1033.39 1032.69 1032.05
1025.45 1026.04 1026.67 1027.44 1028.48 1028.94 1029.19 1029.89 1030.60 1031.05 1031.67 1033.05 1034.46 1035.11 1035.80 1036.15 1036.45 1036.53 1036.70 1036.88 1036.68 1036.68 1036.56 1036.36 1036.11 1035.99 1035.85 1035.84 1035.82 1035.62 1035.29 1034.85 1034.66 1034.24 1033.75 1033.10 1032.66 1032.17
1025.20 1025.86 1026.47 1027.11 1027.90 1028.63 1029.06 1029.76 1030.68 1031.32 1032.06 1033.05 1034.12 1035.07 1035.59 1036.11 1036.48 1036.81 1037.10 1037.38 1037.39 1036.98 1036.85 1036.63 1036.41 1036.30 1036.08 1035.93 1035.88 1035.67 1035.22 1034.89 1034.53 1034.10 1033.64 1033.14 1032.66 1032.19
1025.13 1025.84 1026.42 1026.89 1027.47 1028.07 1028.42 1029.63 1030.33 1031.20 1032.18 1033.18 1034.12 1035.09 1035.67 1036.13 1036.44 1036.62 1037.10 1037.49 1037.79 1037.82 1037.49 1037.32 1037.07 1036.83 1036.57 1036.50 1036.11 1035.55 1035.29 1034.92 1034.60 1034.15 1033.64 1033.10 1032.61 1032.09
1024.95 1025.81 1026.57 1027.08 1027.54 1027.80 1028.48 1029.16 1029.61 1030.38 1031.60 1032.81 1033.75 1034.53 1035.32 1035.67 1036.07 1036.47 1036.85 1037.48 1037.81 1037.70 1037.73 1037.40 1037.25 1037.10 1036.92 1036.57 1036.05 1035.71 1035.34 1034.95 1034.51 1034.15 1033.61 1033.11 1032.52 1031.92
1024.65 1025.43 1026.50 1026.90 1027.37 1028.17 1028.69 1029.36 1030.05 1030.41 1030.80 1031.77 1032.89 1034.02 1035.00 1035.27 1035.70 1036.43 1036.74 1037.12 1037.47 1037.61 1037.63 1037.49 1037.29 1037.12 1036.91 1036.65 1036.09 1035.86 1035.39 1034.96 1034.49 1034.06 1033.59 1033.16 1032.53 1031.79
1024.42 1025.23 1026.11 1026.93 1027.71 1028.18 1029.03 1030.00 1030.98 1031.53 1031.75 1031.97 1032.72 1033.87 1034.45 1035.15 1035.43 1035.67 1036.35 1037.00 1037.38 1037.64 1037.64 1037.62 1037.47 1037.22 1036.88 1036.66 1036.23 1035.80 1035.42 1035.00 1034.49 1033.89 1033.41 1032.92 1032.35 1031.59
1024.84 1025.63 1026.32 1027.06 1027.77 1028.09 1028.98 1030.24 1031.24 1032.02 1032.27 1032.72 1033.36 1033.89 1034.50 1035.07 1035.47 1035.85 1036.55 1037.17 1037.75 1037.87 1037.88 1037.79 1037.70 1037.23 1036.72 1036.60 1036.34 1035.77 1035.36 1034.95 1034.36 1033.83 1033.27 1032.67 1032.15 1031.42
1025.39 1026.15 1026.31 1027.03 1027.70 1028.43 1029.08 1029.95 1031.29 1032.41 1032.76 1033.81 1034.42 1034.80 1035.16 1035.35 1035.58 1035.99 1036.54 1036.86 1037.44 1037.83 1037.89 1037.97 1037.95 1037.77 1037.17 1036.38 1036.04 1035.70 1035.34 1034.80 1034.37 1033.95 1033.36 1032.68 1031.93 1031.31
1025.07 1026.01 1026.73 1027.23 1028.08 1028.96 1029.48 1030.14 1030.93 1032.45 1033.34 1034.49 1035.29 1035.75 1035.92 1036.12 1036.40 1036.72 1036.81 1036.74 1037.33 1037.54 1037.66 1037.96 1038.27 1038.15 1038.06 1037.39 1036.20 1035.61 1035.48 1034.93 1034.55 1034.05 1033.41 1032.66 1031.95 1031.42
1024.58 1025.56 1026.40 1027.56 1028.52 1029.35 1030.08 1030.50 1031.40 1032.67 1033.86 1034.86 1035.47 1035.97 1036.21 1036.41 1036.89 1037.10 1037.13 1037.15 1037.06 1037.19 1037.44 1037.65 1038.39 1038.39 1038.22 1037.70 1036.90 1035.78 1035.37 1035.07 1034.65 1034.11 1033.45 1032.73 1031.98 1031.52
1024.81 1025.36 1026.59 1028.05 1029.00 1029.79 1030.19 1030.94 1031.86 1032.90 1033.80 1034.70 1035.36 1035.84 1036.23 1036.61 1036.88 1037.11 1037.08 1037.14 1037.18 1037.26 1037.21 1037.35 1037.79 1038.03 1037.76 1037.61 1037.22 1036.38 1036.02 1035.04 1034.48 1034.11 1033.47 1032.89 1032.12 1031.37
1025.27 1026.57 1027.54 1028.67 1029.46 1030.13 1030.91 1032.12 1032.76 1033.32 1033.93 1034.62 1035.24 1035.90 1036.41 1036.73 1037.05 1037.11 1037.49 1037.45 1037.44 1037.52 1037.14 1037.09 1037.31 1037.34 1037.22 1036.96 1036.80 1036.32 1036.11 1035.84 1034.49 1034.19 1033.56 1032.77 1031.91 1031.21
1025.51 1027.13 1028.23 1029.06 1030.59 1031.13 1032.16 1032.70 1033.15 1033.66 1034.34 1034.79 1035.39 1036.10 1036.73 1037.05 1037.25 1037.34 1037.59 1037.88 1037.99 1037.98 1037.75 1037.49 1037.17 1036.99 1036.73 1036.54 1036.41 1035.95 1035.76 1035.28 1034.63 1033.95 1033.23 1032.47 1031.58 1030.69
1026.06 1027.30 1028.60 1029.42 1030.51 1031.63 1032.35 1033.02 1033.42 1034.04 1034.63 1035.05 1035.80 1036.37 1036.74 1037.18 1037.43 1037.67 1037.97 1038.13 1038.50 1038.20 1038.01 1037.98 1037.77 1037.31 1036.86 1036.22 1035.89 1035.83 1035.39 1035.06 1034.39 1033.73 1033.23 1032.54 1031.03 1030.10
1026.43 1027.94 1029.00 1029.82 1031.03 1031.88 1032.52 1032.77 1033.66 1034.38 1034.81 1035.40 1036.06 1036.52 1036.97 1037.38 1037.73 1037.96 1038.15 1038.33 1038.48 1038.16 1038.04 1038.07 1037.96 1037.80 1037.70 1037.38 1036.27 1035.52 1035.50 1034.78 1034.23 1033.60 1033.11 1032.60 1031.59 1030.14
1026.96 1028.08 1029.34 1030.10 1031.04 1031.81 1032.53 1033.15 1033.89 1034.55 1035.15 1035.78 1036.31 1036.81 1037.29 1037.62 1037.95 1038.28 1038.41 1038.45 1038.24 1038.16 1038.22 1038.09 1037.98 1037.84 1037.96 1037.78 1037.43 1035.84 1035.34 1034.93 1034.24 1033.47 1032.59 1031.91 1031.03 1029.78
1027.68 1028.73 1029.64 1030.33 1031.20 1031.97 1032.62 1033.33 1033.85 1034.57 1035.34 1036.11 1036.66 1037.18 1037.59 1037.80 1038.09 1038.26 1038.23 1037.96 1037.96 1038.21 1038.17 1038.10 1037.95 1037.36 1038.10 1037.92 1037.82 1036.69 1035.36 1034.78 1034.12 1033.44 1032.49 1031.41 1030.39 1029.28
1028.12 1029.19 1029.98 1030.46 1031.21 1032.02 1032.73 1033.42 1034.18 1034.94 1035.69 1036.38 1036.96 1037.50 1037.81 1037.90 1037.97 1038.04 1037.95 1038.00 1038.05 1038.13 1038.18 1038.07 1038.13 1038.29 1038.07 1037.96 1037.63 1036.84 1035.69 1034.65 1034.00 1033.01 1032.50 1032.09 1031.23 1029.98
1028.61 1029.36 1030.04 1030.71 1031.39 1032.15 1032.92 1033.71 1034.52 1035.27 1035.90 1036.52 1037.19 1037.58 1037.81 1037.68 1037.71 1037.84 1037.94 1038.03 1038.17 1038.22 1038.25 1038.33 1038.41 1038.60 1038.21 1037.90 1037.24 1036.67 1035.86 1034.65 1033.84 1033.01 1031.95 1031.48 1030.71 1029.88
Wind_Speed
6 6 4 3 5 5 7 6 7 5 3 4 3 3 4 4 5 4 3 7 8 8 9 9 10 11 12 13 14 15 15 16 17 18 19 20 21 22
5 8 4 3 5 6 8 4 3 5 5 3 2 4 4 4 5 4 3 5 6 7 7 7 8 9 11 12 13 14 15 16 17 18 19 20 21 22
6 8 7 6 5 5 4 3 4 4 6 2 2 3 3 5 3 2 4 3 2 5 5 6 7 8 9 11 11 13 14 16 17 18 19 20 21 22
9 8 7 5 6 5 4 4 4 4 5 5 3 2 3 3 3 3 2 3 3 2 6 5 6 8 8 10 11 12 14 15 16 17 18 20 22 22
11 10 9 8 6 3 4 6 4 4 5 7 5 2 2 2 2 2 2 1 1 6 6 6 7 7 8 10 10 11 13 15 15 16 18 20 21 22
8 8 9 10 9 8 6 7 6 6 6 7 4 4 3 1 3 3 1 3 2 3 5 5 8 8 9 10 9 10 13 15 16 17 19 19 20 21
7 7 7 7 10 10 8 7 8 5 6 6 4 3 2 3 3 3 3 2 2 3 3 3 3 3 4 8 8 10 15 15 16 19 19 19 20 22
11 7 7 11 12 13 12 14 11 12 6 5 4 5 4 4 3 3 3 3 1 1 2 2 3 4 3 3 9 14 15 16 16 20 19 20 20 23
11 10 8 6 11 9 14 14 9 8 8 5 8 5 5 5 5 3 2 3 3 1 1 1 2 3 2 3 9 14 14 17 18 20 19 20 22 24
11 12 12 11 10 13 12 11 8 7 5 5 7 6 5 6 5 4 4 4 3 2 1 1 2 2 2 2 8 14 15 18 19 20 20 22 24 24
9 10 12 12 20 23 15 14 11 10 15 19 18 17 16 13 9 5 2 3 1 1 3 1 3 3 2 2 3 14 16 19 21 20 22 24 24 23
8 9 16 15 23 22 15 14 13 10 12 10 8 10 9 9 9 4 3 3 2 2 1 2 2 3 4 2 3 4 4 18 21 18 22 26 25 10
9 9 8 23 21 19 16 10 12 13 15 9 7 5 5 5 4 3 3 3 3 2 2 3 1 1 0 4 4 3 5 9 9 10 17 24 25 20
11 9 12 19 20 20 12 23 25 17 8 7 6 4 5 4 3 3 3 3 2 2 1 2 2 2 1 2 4 6 8 7 4 5 9 15 21 21
9 14 23 20 21 15 24 25 20 9 8 7 6 3 3 3 4 2 3 2 1 1 2 3 3 3 2 3 6 5 9 5 6 7 9 10 10 10
20 16 17 16 15 16 16 11 5 6 6 6 5 5 4 2 2 1 1 1 2 2 2 2 4 3 3 4 4 8 5 3 7 7 8 9 9 8
18 12 11 10 8 8 6 6 6 5 5 5 6 4 4 3 2 1 1 1 2 1 3 3 4 5 3 5 4 3 4 6 7 10 10 10 9 9
14 11 10 10 11 8 8 7 6 8 5 6 5 4 4 3 2 1 2 2 2 1 1 2 3 4 4 4 4 4 3 6 9 9 9 9 11 11
11 10 10 10 9 8 7 7 6 5 6 5 5 4 4 2 4 2 2 1 1 1 2 4 3 5 4 5 4 6 8 9 8 9 8 7 11 12
9 10 10 9 9 8 7 7 6 6 5 4 4 4 3 3 3 3 2 1 1 3 3 3 4 2 1 3 5 10 13 9 8 9 9 9 10 19
8 8 8 9 8 7 7 6 7 6 5 4 4 4 3 4 2 2 1 2 3 3 4 4 3 12 2 2 4 4 6 14 14 11 11 9 6 8
8 8 7 8 8 8 7 7 7 6 5 4 4 4 3 3 3 2 2 1 1 3 2 4 4 3 3 2 4 5 7 7 14 19 19 14 6 8
8 8 7 7 7 7 7 7 6 5 5 4 4 3 3 3 3 2 1 1 1 1 2 3 3 2 2 2 9 6 8 10 7 10 10 17 19 21
Wind_Direction
157 149 133 137 127 132 139 148 136 147 180 216 150 178 139 118 113 117 104 79 75 66 57 53 46 39 32 25 22 21 17 9 1 358 357 354 353 353
154 148 130 135 131 135 149 151 137 133 133 156 199 143 149 122 134 127 138 102 76 61 55 51 42 34 29 23 20 20 13 8 3 359 356 356 354 353
152 152 149 147 139 138 136 118 113 102 112 90 105 117 108 135 109 114 113 116 60 54 45 48 38 31 26 23 22 18 14 10 3 358 358 355 353 351
160 141 144 126 130 133 137 137 129 109 119 123 112 125 122 152 148 124 114 122 158 359 34 44 35 28 28 24 22 17 14 7 2 359 357 352 350 347
164 162 158 140 137 138 130 121 117 99 109 139 137 130 110 136 113 84 104 50 178 49 25 25 41 32 29 22 21 16 7 4 358 357 350 349 346 340
151 147 148 157 160 153 139 132 128 113 113 121 97 109 113 131 110 132 103 45 16 1 8 30 38 26 28 16 6 1 0 358 356 353 351 347 343 339
141 144 151 146 150 158 145 148 136 115 125 126 116 121 134 131 162 169 131 130 33 14 351 355 1 5 9 359 338 354 359 354 353 354 349 347 344 341
153 141 135 135 145 142 143 150 153 147 144 135 146 151 157 151 136 152 131 141 164 344 25 303 23 345 330 340 351 5 355 358 352 352 347 345 342 340
153 144 144 145 132 132 129 122 125 143 145 135 143 147 145 172 141 125 125 128 154 290 81 293 356 318 300 339 6 3 359 357 352 349 348 345 341 340
152 151 146 138 138 126 112 95 80 72 93 100 114 124 120 133 133 142 145 121 94 72 48 53 347 280 304 298 355 0 359 355 350 348 346 345 343 340
134 137 143 135 143 133 119 111 99 90 94 102 109 114 118 122 123 112 84 102 61 54 9 42 351 289 291 278 315 349 348 349 349 347 346 344 341 342
123 132 140 143 146 142 132 131 118 125 117 104 101 99 89 102 105 82 149 126 127 65 302 84 355 350 329 294 308 324 326 341 343 339 340 342 340 341
140 140 145 148 149 146 136 133 136 134 125 115 114 103 93 88 78 79 83 116 120 109 120 106 157 342 264 305 304 332 342 327 323 319 331 336 338 340
148 141 141 144 147 145 126 134 135 127 122 125 126 125 128 111 107 108 97 95 101 155 186 137 163 156 207 279 279 327 325 311 298 308 328 324 326 328
132 135 138 141 141 138 138 140 136 135 136 138 141 126 108 128 125 104 85 71 51 246 188 171 169 222 221 247 287 307 319 306 314 320 322 319 314 315
125 127 132 130 124 134 132 125 115 125 136 134 116 108 113 118 108 94 90 31 76 348 355 209 218 234 257 231 254 288 293 294 311 311 308 305 306 302
130 125 126 120 113 111 112 119 119 119 126 119 124 123 132 121 99 85 76 36 90 343 335 335 347 315 273 275 301 248 295 307 310 313 315 312 307 310
131 137 139 136 138 147 146 138 126 128 124 124 124 142 137 131 114 68 77 87 101 339 357 321 333 352 342 321 223 273 290 312 313 313 316 314 313 320
133 139 143 144 145 154 155 145 137 132 124 133 145 132 125 130 128 96 82 87 15 12 1 7 358 1 355 333 284 308 325 314 314 314 316 308 304 306
134 142 150 148 151 146 138 131 128 131 129 131 128 130 127 127 104 94 101 97 39 28 9 6 360 314 222 286 299 301 317 308 314 312 312 305 289 296
140 139 143 142 135 135 128 131 131 134 136 131 126 127 131 121 117 144 156 49 42 3 354 347 315 335 268 2 2 297 302 315 319 320 315 313 313 308
126 133 136 132 134 136 132 131 131 141 139 134 137 136 142 130 147 154 98 63 4 347 305 322 305 357 38 140 291 287 299 309 315 319 326 322 307 311
123 125 127 126 127 128 131 134 133 137 142 128 129 138 138 121 109 133 103 23 5 318 282 288 313 10 253 216 315 299 292 314 316 327 320 321 317 312